Back to catalog

QIANFAN-80

AliveCommunicationsPO
NORAD 63166·PAYLOAD·🇨🇳 China

Launched Mar 11, 2025 from Wenchang Space Launch Site

Loading…

Next Passes (next 24 hours)

TLE

FreshSource: Space-Track

Epoch: Sep 14, 2026, 21:55 UTC

1 63166U 25046H   26257.91365938  .00000058  00000-0  70470-4 0  9990
2 63166  88.9652 291.1351 0015303  59.9388 300.3278 13.51029461 84825

Track QIANFAN-80 in real time with AllMySat

Download on the App Store